Wind_Speed
10 11 12 12 13 13 13 13 13 13 13 14 14 14 15 15 15 16 17 18 19 20 20 21 22 23 24 24 24 25 26 27 28 28 29 29 30 30 31 31 32 32 32
13 14 14 14 15 14 14 14 14 15 15 15 15 15 15 15 16 16 17 18 20 21 22 23 24 24 25 26 26 27 28 29 30 31 32 32 33 33 34 34 35 35 36
15 15 16 16 16 16 16 16 16 16 17 17 17 17 17 17 17 17 18 19 20 22 23 24 25 26 27 28 29 30 30 30 31 32 34 34 35 36 36 36 37 37 38
19 19 19 19 19 19 19 19 19 19 20 19 18 18 18 18 18 19 19 20 21 22 23 24 26 27 28 28 30 31 32 33 33 35 36 37 38 38 39 39 40 40 41
22 23 23 23 23 24 23 23 23 23 23 22 21 21 20 20 20 20 20 21 22 23 24 25 26 28 29 31 32 33 34 35 36 38 39 40 41 42 43 43 44 44 44
26 26 27 27 27 27 27 27 27 27 27 27 25 25 24 24 23 23 24 24 25 26 28 29 29 30 32 33 34 36 37 38 39 40 41 43 44 45 46 46 47 48 48
30 31 31 30 30 31 31 31 31 30 30 30 30 29 29 27 27 27 27 28 29 30 32 33 33 34 35 36 37 38 40 41 42 44 45 46 47 48 49 50 51 52 52
31 32 33 32 31 31 31 30 33 33 32 32 32 31 30 30 30 30 31 32 33 34 35 36 37 38 39 41 42 43 44 46 47 48 49 51 52 53 54 55 55 56 57
33 33 34 33 32 32 33 34 34 32 33 34 34 34 32 33 33 33 34 36 37 38 40 41 42 43 44 46 47 48 49 50 51 52 53 55 56 57 58 59 60 61 62
35 36 38 36 34 34 35 36 36 36 36 35 37 36 36 36 37 38 39 40 40 42 43 45 46 48 49 50 52 53 54 55 57 57 58 59 60 61 62 63 64 65 66
36 37 38 37 36 37 37 37 37 37 37 37 38 38 38 39 40 42 43 44 45 46 47 49 50 52 54 55 56 57 58 59 61 61 62 63 64 65 66 66 67 68 68
38 38 39 38 39 39 39 39 38 38 39 39 38 40 42 43 44 46 46 47 49 50 51 52 54 56 57 58 59 60 61 62 63 64 65 66 67 67 68 68 68 69 69
38 39 39 40 41 41 40 40 40 41 42 41 43 44 46 47 48 49 50 51 52 53 55 56 58 59 60 61 61 63 64 65 66 67 67 68 68 69 69 69 69 69 69
40 40 41 41 42 41 41 43 43 43 44 45 47 49 51 51 51 52 53 53 55 57 58 60 61 62 62 63 63 64 65 66 67 67 68 68 68 68 68 68 67 67 66
42 42 42 43 44 44 44 46 47 48 49 51 52 53 54 55 55 55 56 58 58 59 60 61 63 64 64 64 64 65 65 66 66 67 67 67 67 67 66 66 65 64 63
42 43 44 44 45 47 49 50 51 53 53 54 55 56 57 57 58 59 60 61 62 62 62 63 63 64 64 64 65 65 65 65 64 64 64 64 64 63 63 62 61 61 61
44 45 46 47 49 51 52 53 54 54 55 57 58 60 61 61 61 62 62 62 63 62 62 62 63 63 63 64 64 63 63 62 61 61 61 61 60 60 59 59 58 58 58
47 48 48 50 52 53 55 55 55 57 58 59 60 60 61 62 62 61 61 61 61 60 60 60 61 62 62 62 62 61 60 60 59 59 59 58 57 56 56 55 54 54 53
48 50 51 52 53 54 56 57 58 58 59 59 59 59 59 59 59 59 59 58 58 58 58 58 58 58 59 59 58 58 58 58 57 56 55 53 52 51 50 49 47 46 45
49 50 51 52 53 54 55 56 57 57 57 58 58 58 57 57 57 57 56 56 55 55 55 54 54 53 53 53 53 52 51 51 49 47 46 45 43 42 41 39 38 38 38
47 48 50 51 53 54 55 56 57 57 57 57 56 55 55 55 54 53 53 52 51 51 50 49 48 48 47 46 45 43 41 40 40 39 38 37 35 33 33 32 33 33 34
47 49 50 51 52 53 54 54 55 55 54 54 53 52 52 52 51 49 47 46 45 44 43 42 41 39 38 37 35 34 32 31 30 30 30 29 29 28 28 28 29 30 31
46 48 49 51 52 53 53 54 53 52 51 50 49 48 47 45 43 42 40 40 38 37 36 34 32 31 30 28 27 26 25 25 24 24 24 25 25 25 25 26 26 27 27
45 47 49 50 50 51 50 50 49 48 46 45 43 41 40 38 36 35 34 32 31 29 27 26 25 24 23 22 22 21 20 20 20 20 20 21 23 23 23 23 23 24 25
44 45 46 45 45 45 45 43 42 41 39 38 36 34 33 32 30 28 26 25 23 23 21 20 19 18 18 18 18 18 17 18 18 19 19 20 20 21 22 21 22 23 23
41 41 41 40 40 39 37 36 35 33 31 29 28 27 26 25 23 21 20 19 18 18 17 17 16 15 15 15 15 16 16 16 17 17 18 18 19 19 20 21 21 22 22
Wind_Direction
254 260 268 273 274 277 285 292 294 299 303 303 297 293 291 291 290 286 282 278 277 276 277 276 275 276 275 274 275 274 273 272 272 270 269 268 268 269 269 269 270 270 269
260 261 265 269 271 276 282 286 291 295 298 299 296 292 290 289 288 287 286 283 280 278 278 277 277 277 275 274 275 275 275 274 274 272 271 270 270 270 270 271 271 271 270
265 264 266 270 271 274 279 282 285 288 291 294 294 291 289 287 286 286 285 284 283 281 279 279 278 278 277 277 276 276 277 276 275 273 273 272 271 271 271 272 272 272 271
267 267 268 269 271 272 274 276 283 286 286 288 290 289 287 284 282 282 282 282 282 283 281 281 281 280 278 278 279 278 277 276 275 275 274 274 273 273 273 273 273 273 272
273 270 269 270 271 271 271 273 279 281 281 283 285 284 283 281 279 280 281 281 281 281 281 282 282 282 280 280 281 280 280 278 278 277 277 277 276 275 274 274 274 274 273
273 273 272 271 273 273 273 273 276 278 278 279 280 280 280 279 277 277 277 278 279 280 281 282 282 282 282 281 281 281 281 281 280 279 278 278 277 276 275 275 275 275 275
276 276 277 275 277 278 278 278 281 279 276 276 278 278 277 277 277 277 277 277 278 279 280 280 281 280 280 281 281 281 281 281 281 280 280 279 278 278 277 277 277 276 276
280 280 280 278 280 282 281 283 285 281 275 276 278 280 277 278 279 279 278 278 278 278 279 279 279 280 280 280 281 281 281 281 281 281 280 279 279 279 278 278 278 277 277
285 283 280 280 281 284 285 286 286 284 281 280 280 281 280 279 279 280 280 279 278 279 279 280 280 280 281 281 281 281 281 281 281 281 281 280 280 280 279 279 278 278 278
285 285 286 285 283 285 286 285 286 287 286 283 282 283 282 280 280 281 281 281 280 280 280 280 281 281 281 281 281 281 282 282 282 282 282 281 281 280 280 280 279 279 279
287 289 290 289 288 287 288 288 287 289 289 286 285 284 282 282 282 282 282 282 282 282 282 282 282 282 282 281 281 281 281 282 282 282 282 281 281 281 281 281 281 280 280
287 288 291 289 289 291 291 291 288 289 290 288 286 286 284 284 284 284 283 283 283 284 283 283 283 283 283 282 282 281 282 282 281 281 281 281 281 281 281 281 281 280 280
290 290 291 291 290 291 291 290 289 289 290 289 289 289 288 288 286 285 284 284 284 284 284 284 284 284 283 283 282 282 282 282 282 281 281 281 281 281 281 281 281 280 280
291 290 291 291 290 292 292 292 292 291 289 289 290 290 289 289 288 286 285 285 285 285 285 284 284 283 283 283 283 282 282 282 282 281 281 281 281 281 281 281 281 280 280
291 289 290 290 291 292 292 291 291 292 290 289 290 290 290 288 288 287 287 287 286 285 284 284 284 283 283 282 282 282 282 282 282 282 282 282 282 281 281 281 281 280 280
289 289 290 290 290 291 292 291 292 292 291 291 291 290 290 288 288 287 287 287 286 285 284 284 284 284 283 283 283 283 283 283 283 283 283 282 282 281 281 281 281 280 280
286 288 290 290 290 291 291 291 292 291 292 291 291 291 290 290 289 288 288 287 287 286 285 284 284 284 284 284 284 284 284 283 283 283 283 283 283 282 281 281 281 280 280
287 288 289 290 290 290 290 291 291 291 291 291 291 291 290 290 289 289 289 288 288 288 287 286 285 285 285 285 285 284 284 284 283 283 283 283 283 282 282 282 282 281 280
286 287 288 289 289 289 291 291 292 292 292 292 292 292 291 291 290 290 290 290 290 289 289 288 287 287 287 286 285 285 285 285 284 284 284 283 283 283 283 282 282 282 281
287 288 289 290 291 291 292 293 293 293 293 293 292 292 292 292 292 291 291 291 291 291 290 290 289 289 288 288 287 287 287 286 286 286 286 285 285 284 284 284 283 283 283
287 289 290 291 292 292 293 294 294 294 294 294 293 293 293 293 293 292 292 293 293 292 292 291 291 291 291 291 291 290 288 287 288 288 288 287 287 287 286 286 286 286 286
289 290 291 292 292 294 295 295 295 295 295 295 294 294 294 294 294 294 294 294 294 294 294 294 294 293 293 294 294 293 292 292 292 292 292 292 291 291 291 291 291 291 290
291 292 293 293 294 295 295 295 295 295 295 295 295 295 296 296 296 296 297 297 297 297 297 297 297 297 298 297 297 297 297 296 296 295 295 295 296 297 297 295 294 294 293
292 294 295 296 296 297 297 297 297 297 297 297 297 297 298 298 298 299 300 300 301 301 301 302 303 303 303 304 305 305 304 303 302 301 301 302 302 302 300 299 298 297 297
297 298 299 300 300 300 300 300 300 300 300 300 299 299 300 300 301 302 303 305 306 309 310 311 311 310 310 311 312 313 313 311 311 310 310 309 307 306 305 305 305 305 304
301 301 302 303 305 305 306 307 307 307 307 306 305 305 306 306 307 309 311 313 315 317 319 321 321 320 322 323 323 321 321 320 318 317 317 315 314 312 312 312 312 312 311
Height
5883 5882 5882 5880 5879 5878 5877 5876 5875 5874 5873 5871 5870 5869 5868 5867 5866 5865 5864 5863 5862 5862 5862 5862 5861 5861 5861 5860 5860 5860 5860 5859 5859 5859 5858 5858 5858 5858 5858 5858 5858 5858 5859
5880 5879 5878 5877 5876 5875 5874 5873 5872 5871 5870 5868 5867 5866 5864 5863 5862 5861 5860 5859 5858 5858 5857 5857 5856 5856 5855 5855 5855 5854 5854 5853 5853 5852 5852 5852 5851 5851 5851 5851 5851 5851 5851
5877 5876 5875 5874 5873 5872 5871 5870 5869 5867 5866 5865 5863 5862 5860 5859 5858 5857 5856 5855 5854 5853 5852 5852 5851 5851 5850 5849 5849 5848 5847 5847 5846 5845 5845 5844 5844 5843 5843 5843 5843 5843 5843
5873 5872 5871 5870 5868 5867 5866 5865 5864 5863 5862 5860 5859 5858 5856 5855 5854 5853 5852 5850 5849 5848 5847 5847 5846 5845 5844 5843 5842 5841 5840 5839 5839 5838 5837 5837 5836 5835 5835 5834 5834 5833 5833
5867 5866 5865 5864 5863 5862 5861 5860 5859 5858 5856 5855 5854 5853 5852 5850 5849 5848 5847 5846 5844 5843 5842 5841 5839 5838 5837 5836 5835 5834 5832 5831 5830 5829 5829 5828 5827 5826 5825 5825 5824 5823 5823
5861 5860 5858 5857 5856 5855 5854 5853 5852 5851 5850 5849 5848 5847 5846 5845 5844 5843 5841 5840 5839 5837 5836 5834 5833 5832 5830 5829 5827 5826 5824 5823 5821 5820 5819 5818 5817 5816 5815 5814 5813 5812 5812
5853 5852 5851 5850 5849 5849 5848 5846 5845 5844 5843 5842 5841 5840 5839 5838 5837 5836 5834 5833 5832 5830 5829 5827 5825 5824 5822 5821 5819 5817 5815 5813 5812 5810 5808 5807 5805 5804 5803 5802 5801 5800 5799
5845 5844 5843 5842 5842 5841 5839 5838 5837 5835 5834 5834 5833 5832 5831 5831 5829 5828 5826 5825 5824 5822 5820 5818 5817 5815 5813 5811 5809 5807 5805 5803 5801 5799 5797 5795 5793 5791 5790 5789 5788 5786 5785
5838 5836 5834 5834 5833 5833 5832 5831 5830 5828 5827 5825 5824 5824 5823 5822 5821 5819 5817 5816 5814 5813 5811 5809 5807 5805 5803 5800 5798 5796 5793 5791 5789 5787 5784 5782 5780 5778 5776 5774 5772 5771 5770
5831 5829 5827 5826 5825 5825 5824 5822 5821 5820 5818 5817 5815 5814 5813 5812 5811 5809 5808 5806 5804 5802 5800 5797 5795 5793 5790 5788 5785 5783 5780 5777 5775 5773 5770 5767 5765 5762 5760 5758 5756 5754 5753
5823 5822 5820 5818 5817 5817 5816 5814 5812 5811 5808 5807 5805 5804 5803 5801 5799 5798 5796 5794 5792 5790 5787 5785 5782 5779 5776 5773 5771 5768 5765 5762 5760 5757 5754 5752 5749 5746 5743 5741 5739 5737 5735
5815 5813 5811 5809 5809 5808 5806 5805 5803 5801 5799 5797 5795 5794 5792 5790 5788 5786 5784 5781 5779 5776 5773 5770 5768 5765 5761 5758 5755 5752 5749 5746 5743 5740 5738 5735 5732 5729 5726 5723 5720 5718 5716
5806 5805 5803 5802 5800 5798 5797 5795 5793 5791 5789 5787 5785 5783 5780 5778 5775 5773 5770 5768 5765 5762 5758 5755 5752 5749 5745 5742 5739 5736 5733 5729 5726 5723 5720 5717 5714 5711 5708 5705 5702 5699 5697
5798 5796 5794 5793 5791 5789 5787 5785 5783 5781 5778 5775 5773 5771 5768 5765 5762 5759 5756 5753 5750 5747 5743 5739 5735 5731 5728 5725 5722 5718 5715 5712 5708 5705 5701 5698 5695 5692 5689 5686 5683 5680 5678
5788 5787 5785 5783 5781 5779 5777 5775 5772 5769 5766 5763 5760 5757 5754 5751 5747 5744 5741 5737 5734 5731 5727 5722 5717 5713 5710 5706 5703 5700 5697 5693 5690 5686 5683 5679 5676 5673 5670 5667 5664 5662 5659
5778 5776 5775 5773 5770 5768 5766 5763 5760 5757 5753 5749 5746 5742 5738 5735 5731 5727 5723 5720 5716 5713 5709 5704 5699 5695 5691 5687 5684 5681 5678 5674 5671 5667 5664 5661 5657 5654 5651 5649 5646 5644 5641
5768 5766 5764 5762 5759 5756 5753 5750 5747 5743 5739 5736 5731 5727 5723 5719 5715 5710 5706 5702 5697 5693 5690 5686 5681 5677 5673 5669 5666 5662 5659 5656 5652 5649 5646 5643 5639 5636 5634 5631 5628 5626 5623
5757 5755 5752 5750 5747 5744 5740 5737 5733 5729 5725 5721 5716 5711 5707 5702 5697 5693 5688 5683 5679 5675 5672 5668 5663 5659 5655 5651 5648 5644 5640 5637 5634 5631 5628 5625 5622 5619 5617 5614 5611 5608 5606
5746 5744 5741 5738 5734 5731 5727 5723 5719 5714 5710 5705 5700 5695 5690 5685 5681 5676 5671 5667 5662 5658 5654 5650 5646 5641 5637 5633 5631 5627 5623 5620 5617 5614 5611 5608 5605 5603 5600 5598 5595 5593 5590
5735 5732 5729 5725 5721 5717 5713 5709 5704 5699 5694 5689 5684 5679 5674 5670 5665 5660 5655 5651 5646 5642 5638 5634 5630 5625 5621 5617 5614 5612 5608 5604 5601 5598 5596 5593 5591 5588 5586 5584 5583 5580 5578
5724 5720 5717 5713 5708 5704 5699 5694 5689 5684 5679 5674 5668 5664 5659 5654 5650 5645 5641 5636 5632 5627 5623 5619 5615 5611 5607 5604 5600 5597 5594 5591 5588 5586 5584 5581 5579 5577 5576 5574 5572 5569 5567
5712 5709 5705 5700 5695 5690 5685 5680 5675 5669 5664 5659 5654 5649 5644 5640 5636 5631 5627 5623 5619 5615 5611 5607 5603 5599 5595 5592 5589 5586 5584 5582 5580 5577 5575 5572 5570 5568 5567 5565 5562 5560 5557
5701 5697 5692 5688 5683 5677 5672 5667 5661 5656 5650 5645 5640 5636 5631 5627 5623 5619 5615 5611 5608 5604 5601 5597 5593 5590 5587 5584 5581 5578 5576 5574 5572 5570 5568 5565 5563 5561 5559 5557 5554 5551 5549
5690 5685 5680 5675 5670 5664 5659 5653 5648 5643 5638 5633 5628 5624 5620 5617 5613 5609 5606 5603 5599 5596 5593 5590 5587 5584 5581 5578 5576 5573 5571 5569 5566 5564 5562 5560 5557 5555 5552 5550 5547 5544 5541
5679 5674 5669 5664 5659 5653 5647 5641 5636 5631 5626 5622 5618 5615 5611 5608 5605 5601 5599 5596 5593 5590 5587 5585 5582 5579 5577 5574 5572 5569 5567 5565 5562 5560 5558 5555 5552 5549 5546 5544 5541 5537 5534
5669 5664 5659 5654 5649 5643 5637 5632 5627 5622 5618 5614 5610 5607 5604 5601 5599 5596 5594 5591 5589 5586 5584 5581 5579 5576 5574 5571 5569 5566 5564 5561 5559 5556 5554 5551 5548 5545 5541 5538 5535 5531 5527